Flag for Canada Weather past 2 weeks in Arviat, Nunavut, Canada

30 °F


Feels Like: 17 °F
Forecast: 20 / 33 °F
Wind: 21 mph from Southeast

Location: Arviat Airport

Current Time: Oct 10, 2015 at 1:41:54 PM

Latest Report: Oct 10, 2015 at 1:00 PM

Visibility: 15 mi

Pressure: 29.65 "Hg

Humidity: 69%

Dew point: 21 °F

Location of ArviatLocation

Historic Weather in Arviat — Graph


Arviat temperature yesterday

Maximum temperature yesterday: 30 °F (at 1:55 PM)
Minimum temperature yesterday: 21 °F (at 11:00 PM)
Average temperature yesterday: 26 °F

Past Weeks' High & Low Weather Summary

High64 °F (Oct 1, 4:00 PM)100% (Sep 25, 10:00 PM)30.44 "Hg (Sep 25, 10:00 PM)
Low21 °F (Oct 9, 11:00 PM)55% (Sep 26, 2:00 PM)29.19 "Hg (Sep 27, 11:00 AM)
Average37 °F87%29.89 "Hg
* Reported Sep 25 12:00 Noon — Oct 10 12:00 Noon, Arviat, Weather by CustomWeather, © 2015

Note: Actual official high and low records may vary slightly from our data, if they occured in-between our weather recording intervals... More about our weather records


Arviat weather history for previous 24 hours

Time TempWeatherWind HumidityBarometerVisibility
12:00 PM
Sat, Oct 10
30 °FOvercast.18 mph75%29.70 "Hg15 mi
11:00 AM30 °FOvercast.16 mph69%29.73 "Hg15 mi
10:00 AM28 °FOvercast.13 mph74%29.76 "Hg15 mi
9:00 AM27 °FMostly cloudy.12 mph80%29.78 "Hg15 mi
8:00 AM25 °FOvercast.14 mph86%29.79 "Hg9 mi
7:00 AM25 °FPassing clouds.8 mph86%29.83 "Hg9 mi
6:00 AM25 °FOvercast.7 mph80%29.85 "Hg9 mi
5:00 AM23 °FOvercast.9 mph86%29.86 "Hg9 mi
4:00 AM23 °FOvercast.6 mph86%29.88 "Hg9 mi
3:00 AM21 °FOvercast.7 mph86%29.90 "Hg9 mi
2:00 AM21 °FOvercast.7 mph86%29.90 "Hg9 mi
1:00 AM21 °FPassing clouds.8 mph86%29.92 "Hg9 mi
12:45 AM21 °FPassing clouds.10 mph86%29.93 "Hg9 mi
12:00 AM21 °FOvercast.10 mph86%29.93 "Hg9 mi
11:00 PM
Fri, Oct 9
21 °FClear.12 mph86%29.93 "Hg9 mi
10:00 PM23 °FPassing clouds.13 mph80%29.94 "Hg9 mi
9:00 PM25 °FOvercast.9 mph74%29.95 "Hg9 mi
8:00 PM25 °FPartly cloudy.14 mph74%29.95 "Hg9 mi
7:00 PM25 °FSunny.10 mph80%29.95 "Hg9 mi
6:02 PM27 °FLight snow. Overcast.18 mph74%29.94 "Hg9 mi
5:00 PM28 °FPartly sunny.20 mph64%29.94 "Hg15 mi
4:00 PM28 °FPartly sunny.20 mph69%29.94 "Hg15 mi
3:00 PM27 °FPartly sunny.21 mph86%29.93 "Hg15 mi
2:52 PM28 °FSnow flurries. Partly sunny.21 mph86%29.93 "Hg6 mi
2:00 PM28 °FSnow flurries. Overcast.20 mph86%29.93 "Hg3 mi
1:55 PM30 °FSnow flurries. Overcast.17 mph69%29.93 "Hg15 mi
1:00 PM28 °FScattered showers. Partly sunny.16 mph69%29.95 "Hg15 mi
Weather by CustomWeather, © 2015

See weather overviewHow to use our weather pages